Location: Flotzheim
(48.8375°N, 10.8136°E)
Time: 16:08:02
(UTC+00:00)

YAOGAN 1 - Pass Details

Date: 23 January 2021
Orbit: 618 x 620 km, 97.9° (Epoch: 28 February)

Event Time Altitude Azimuth Distance (km) Brightness Sun altitude
Rises 17:44:06 0° 161° (SSE) 2,886 5.9 -16.9°
Reaches altitude 10° 17:46:16 10° 160° (SSE) 1,985 5.0 -17.2°
Maximum altitude 17:50:35 78° 74° (ENE) 640 2.4 -17.9°
Drops below altitude 10° 17:54:56 10° 349° (NNW) 2,000 5.2 -18.6°
Sets 17:57:08 0° 348° (NNW) 2,911 6.1 -19.0°
